Theta_e
307 300 297 296 298 300 301 301 300 299 299 297 298 297 296 296 297 300 299 300 300 298 298 299 299 299 300 302 304 305 306 306 305 305 306 306 307 307 307 308 309 310 310 318 317 316 314 314 313 313 313 313 314 315 315 315 316 316 316 316 316 317 318 317 314 313 314 314 314 316 315 313 312 312 311 312 311 312 312 311 312 312 313 313 313 313
304 298 298 300 301 302 302 302 301 299 298 298 297 297 296 299 295 299 299 299 300 297 297 299 299 299 301 302 303 305 304 303 304 305 305 306 307 307 308 308 309 310 314 320 315 313 313 312 313 312 312 312 312 313 314 314 315 315 316 316 316 316 316 316 314 314 314 316 317 315 316 318 314 310 309 308 308 307 309 309 309 310 311 311 310 309
297 295 299 302 302 302 301 301 300 299 298 298 296 298 297 296 300 300 299 298 299 297 296 299 297 298 300 301 303 303 304 305 306 306 306 306 307 308 308 308 309 310 312 315 313 313 311 312 311 311 311 311 312 313 313 314 315 315 315 315 315 315 315 315 315 314 314 316 317 317 317 318 312 311 311 310 307 305 305 305 307 307 308 309 308 308
294 297 300 302 302 300 299 299 299 299 299 298 297 295 293 301 294 293 296 298 298 297 295 297 296 297 300 302 303 305 304 305 307 307 308 308 307 308 308 309 310 310 311 311 313 312 310 311 310 309 309 310 311 312 313 313 313 314 314 315 315 314 314 314 314 314 316 316 311 312 316 312 311 306 302 303 303 302 301 301 302 302 304 305 306 306
296 299 300 301 300 299 297 299 298 297 295 300 299 298 296 297 297 296 296 298 299 299 299 297 296 297 300 300 302 306 307 307 307 308 308 309 310 310 312 312 311 310 310 311 312 313 309 309 309 308 309 310 310 312 312 313 313 313 314 314 315 314 312 314 314 314 315 309 306 304 305 305 303 304 304 301 300 300 300 299 299 301 302 303 303 304
298 300 302 299 300 299 299 296 298 299 295 297 301 299 298 298 297 298 299 297 295 294 297 299 290 292 299 301 302 303 304 304 307 306 306 307 308 309 308 309 311 313 313 311 311 312 311 309 309 309 309 309 310 311 313 314 313 314 314 314 314 313 312 313 313 314 310 309 305 303 303 303 303 302 301 301 300 298 298 300 300 299 299 301 302 302
298 299 301 300 299 300 300 297 300 300 295 294 296 302 300 298 299 298 296 296 290 289 297 298 289 286 296 296 298 300 301 301 304 305 306 307 308 309 310 311 311 312 312 313 312 312 311 310 309 308 308 309 309 311 314 314 313 314 314 314 314 313 312 312 312 311 308 308 307 305 306 307 306 304 303 305 304 302 302 301 298 298 296 298 299 300
299 298 300 301 300 299 298 295 301 299 296 293 298 301 299 299 298 298 297 297 294 299 300 297 296 289 289 295 300 301 300 300 302 303 305 306 307 308 310 311 312 312 312 312 312 311 311 311 309 308 308 309 309 312 313 313 313 313 313 313 313 312 311 312 312 308 308 308 306 306 307 308 307 308 306 305 304 303 301 298 297 296 296 296 297 298
299 298 298 298 298 297 296 298 303 301 297 297 298 302 300 298 299 299 298 295 296 294 290 295 297 290 289 296 300 301 298 300 301 302 304 305 308 309 311 311 311 311 312 311 312 311 310 310 309 309 308 309 310 311 312 312 313 313 313 312 312 311 310 311 309 307 307 307 307 307 308 307 309 311 308 306 304 301 298 298 295 294 294 294 295 296
298 300 301 301 298 296 300 297 301 301 296 297 300 301 300 301 300 299 296 295 294 291 287 293 296 288 288 295 297 300 299 298 299 302 303 305 310 310 311 311 311 310 309 310 309 309 310 310 309 309 309 309 309 311 313 313 313 312 312 311 311 310 310 310 308 306 306 306 306 307 308 307 308 307 306 304 300 298 297 297 294 293 293 294 294 294
298 298 299 301 299 301 298 298 298 301 300 301 302 301 299 299 298 297 297 294 291 286 289 296 295 292 285 293 297 296 297 299 300 302 303 309 309 309 312 312 313 309 309 309 308 307 307 307 307 307 307 308 309 311 312 312 312 312 311 310 309 309 309 309 307 306 305 306 306 307 308 309 308 304 302 300 297 298 296 296 293 293 293 292 292 294
299 298 299 301 298 300 301 297 300 300 302 303 299 296 296 294 295 294 292 293 286 284 292 294 295 294 285 290 299 301 301 301 301 300 302 304 307 309 314 310 308 308 308 308 307 305 305 304 305 305 305 306 308 310 310 311 311 311 311 310 309 308 309 308 307 306 305 304 305 307 309 309 308 305 303 301 298 298 296 296 294 293 292 292 293 292
295 296 300 298 300 300 299 297 296 299 300 301 297 295 289 286 288 284 288 284 285 284 289 291 294 291 290 293 298 300 300 302 303 304 304 306 305 307 309 313 310 309 308 308 308 307 305 305 304 303 304 306 307 308 309 309 310 310 310 309 308 307 308 307 305 305 305 304 304 306 307 308 306 304 302 302 300 298 297 296 295 293 292 292 292 291
293 299 299 299 297 299 301 293 292 291 295 296 293 292 287 283 283 281 285 287 287 289 289 291 294 288 293 296 300 299 302 303 303 305 306 307 306 307 308 312 311 311 308 308 308 308 308 307 306 305 304 305 306 308 308 309 309 309 309 309 308 307 307 307 305 304 304 304 304 305 306 306 306 303 302 301 302 299 299 297 297 295 294 293 293 292
286 287 294 297 292 300 300 298 297 295 294 295 299 295 290 288 284 281 284 281 283 286 287 291 287 286 287 292 299 302 304 306 307 306 308 309 309 309 310 310 309 310 310 309 308 309 309 308 307 306 305 305 306 307 308 308 308 309 308 308 307 306 307 306 305 303 303 303 304 305 306 306 303 302 301 301 301 299 298 297 296 296 295 295 294 294
291 290 299 300 301 300 299 302 303 300 297 297 299 300 293 289 293 285 287 286 286 286 285 285 286 292 293 300 302 304 303 303 304 304 305 305 306 308 308 309 309 310 309 308 308 308 309 308 307 306 305 305 306 307 308 308 308 308 307 307 307 306 306 306 305 303 303 303 303 303 303 303 303 301 300 300 300 299 300 299 301 299 297 296 296 295
291 288 297 299 300 298 299 302 302 302 287 295 296 291 294 299 295 289 286 288 285 284 282 290 289 293 298 298 299 300 300 300 302 304 304 305 307 308 309 310 311 311 309 309 310 309 308 307 307 306 305 305 306 306 307 307 308 308 307 306 306 306 306 306 305 302 302 302 302 302 301 301 301 300 300 301 299 299 299 299 299 298 298 298 298 296
290 291 292 296 293 297 297 300 302 299 302 297 289 294 300 303 299 291 284 287 284 281 283 289 286 288 289 286 299 299 298 299 301 301 302 304 305 306 309 311 314 312 309 309 311 311 309 308 306 305 306 306 306 306 307 307 308 308 308 307 306 306 305 306 303 302 302 301 301 301 300 301 301 300 299 300 300 300 299 300 299 297 297 296 296 295
298 288 292 295 297 298 299 299 297 301 300 298 295 303 292 286 285 290 287 280 280 280 283 287 289 289 290 290 295 296 296 299 300 302 302 302 303 305 307 309 312 312 309 308 308 309 308 307 306 304 304 305 306 306 307 308 308 308 307 307 306 306 306 306 303 302 302 302 300 300 300 300 299 297 297 299 298 297 297 296 296 295 296 294 293 292
298 288 290 290 294 297 297 296 288 292 299 300 301 297 301 295 290 287 287 287 286 281 282 283 287 285 294 294 296 296 298 299 300 300 301 303 304 305 307 311 314 313 310 309 308 308 308 306 305 304 303 303 304 305 306 307 307 307 307 306 306 306 306 305 302 302 301 301 300 299 299 298 298 297 296 296 295 294 294 294 293 293 292 292 291 290
292 295 286 291 294 295 288 293 291 294 290 291 291 291 294 292 297 293 294 288 286 283 283 282 282 287 294 299 298 298 299 301 301 301 303 304 306 307 309 313 314 311 311 311 310 309 307 305 303 303 303 303 304 305 306 306 306 306 307 306 306 305 305 305 302 302 301 300 299 299 298 297 298 296 295 296 294 293 292 292 292 291 291 289 289 289
291 292 286 290 288 289 292 298 297 298 296 294 292 290 292 290 287 284 283 294 288 286 283 283 281 289 296 300 300 299 301 302 303 303 303 305 305 308 312 314 310 310 310 310 309 306 305 303 302 302 302 302 303 303 304 305 305 306 306 306 306 305 305 305 303 301 301 300 300 298 298 297 296 298 295 294 292 291 291 290 290 290 289 288 288 289
297 296 290 287 289 291 295 298 299 297 299 300 297 293 296 294 293 288 282 286 288 288 289 288 285 287 298 301 301 301 302 301 303 304 303 304 306 308 313 311 309 308 308 308 307 304 304 303 302 301 300 300 301 302 303 304 304 305 305 305 305 305 304 305 303 302 301 300 299 298 297 296 296 296 294 294 291 290 290 290 289 289 288 288 288 289
296 289 287 289 294 297 296 298 298 298 298 296 296 297 296 293 294 291 289 289 288 288 286 286 283 287 298 302 302 305 305 306 305 306 305 306 308 310 311 310 308 309 308 306 305 303 303 302 301 300 299 299 300 301 302 303 304 304 304 304 305 304 304 305 304 301 301 300 299 298 296 296 295 294 294 294 292 290 289 289 288 288 288 287 287 287
290 290 289 286 286 288 291 294 293 297 296 292 293 296 297 298 297 295 292 291 287 288 288 286 281 287 297 300 301 302 300 301 301 303 304 306 309 312 309 310 309 308 307 306 305 304 302 300 299 299 299 299 299 300 301 302 303 303 303 304 303 304 304 304 304 300 300 299 297 297 296 295 295 295 293 292 290 289 289 288 287 287 287 287 286 287
291 290 287 282 280 279 280 281 283 286 288 292 293 295 297 296 295 292 287 289 285 288 289 286 286 292 297 300 300 299 301 301 302 304 303 305 306 307 309 311 308 307 305 306 306 305 302 301 300 300 299 299 299 299 300 300 301 302 303 303 303 303 303 303 300 299 298 298 297 296 295 295 293 293 291 291 289 289 288 287 286 286 286 286 286 286
288 291 291 288 286 285 288 290 296 296 292 287 291 293 294 296 296 295 292 288 285 288 287 289 290 291 293 296 297 299 299 299 301 303 303 303 304 305 306 306 307 306 306 305 305 306 305 301 300 300 299 299 299 299 299 300 300 301 301 301 302 302 302 301 299 298 297 297 296 296 295 294 293 292 291 291 290 289 287 286 286 286 285 286 286 285
288 287 290 292 292 292 294 294 298 296 292 293 291 291 294 294 294 290 289 287 292 288 284 291 294 289 292 295 297 297 299 298 301 301 302 305 307 308 308 306 302 303 304 305 304 303 303 303 303 300 299 298 299 299 299 299 300 300 300 300 301 301 301 300 298 297 297 296 295 295 295 294 293 292 291 290 290 288 287 286 286 285 286 286 285 285
289 286 291 291 290 293 295 295 296 296 296 295 295 294 292 294 292 288 289 293 293 288 286 292 295 291 294 296 298 299 300 300 301 302 303 305 305 306 305 304 305 305 305 305 305 304 304 304 305 303 300 299 298 298 298 298 298 299 300 300 300 300 300 300 297 296 296 296 295 295 295 294 293 292 291 290 289 287 286 285 285 285 285 285 285 285
292 288 291 292 290 292 293 294 295 294 294 295 295 295 296 294 293 293 292 294 293 292 294 293 294 294 296 297 299 300 302 303 303 304 305 304 305 305 306 306 307 307 307 307 307 307 306 305 305 305 304 300 298 298 297 297 297 298 298 299 300 299 299 299 296 296 295 295 295 295 294 294 293 291 290 289 288 287 286 285 285 284 284 284 284 284
291 287 292 291 288 288 292 294 295 294 294 291 294 295 295 295 296 295 294 294 295 294 294 294 293 293 298 300 301 302 303 304 303 302 303 304 304 304 304 305 305 306 307 308 308 308 308 307 306 305 305 302 300 298 298 298 298 298 298 298 299 299 299 298 296 295 295 294 295 294 294 292 291 290 290 289 288 287 286 286 285 284 284 284 284 284
291 287 291 288 286 286 290 291 291 293 291 289 289 292 293 292 291 294 292 295 293 291 293 293 290 292 297 301 302 302 302 302 301 302 302 303 304 304 304 304 304 305 306 307 307 307 307 307 308 307 305 303 301 299 298 298 298 297 297 298 298 298 299 298 296 295 295 294 294 294 292 291 291 290 290 289 287 286 286 285 285 285 284 284 284 284
289 288 287 287 284 284 288 291 289 289 287 285 286 290 292 294 295 296 297 297 296 296 291 288 290 297 299 300 299 300 301 301 301 302 303 304 304 304 304 304 304 305 305 306 307 307 307 307 308 308 307 305 303 300 299 299 298 297 297 297 298 298 297 297 296 295 294 294 293 293 292 291 290 290 289 288 287 286 286 285 285 284 284 284 284 284
289 289 288 290 283 285 287 287 288 285 278 280 293 296 296 293 293 292 292 295 297 298 294 297 296 299 300 300 299 299 300 301 302 304 305 305 305 305 305 305 305 305 306 306 307 307 308 308 309 309 309 307 305 302 301 299 298 298 298 298 298 297 296 296 295 294 293 293 293 292 291 291 290 289 289 288 287 286 285 285 284 284 284 284 284 283
288 288 288 290 286 284 287 287 283 277 279 291 296 298 298 297 297 295 295 296 297 298 298 297 297 298 299 300 301 301 302 303 304 304 304 305 306 305 305 305 305 306 306 306 306 307 307 308 308 308 308 307 304 303 300 299 298 298 298 297 296 296 295 295 294 293 293 292 292 291 291 290 290 289 289 287 286 285 285 284 284 284 284 284 283 283
288 287 289 288 288 288 285 284 277 279 289 294 296 297 300 299 298 296 294 297 298 298 298 297 298 299 300 300 301 302 302 302 303 303 304 304 305 305 304 304 305 305 305 306 306 307 307 307 307 307 307 307 305 302 300 299 298 297 296 296 295 294 294 293 293 293 292 292 291 291 291 290 290 289 288 286 285 285 284 284 284 284 284 283 283 283
294 290 289 285 289 281 284 284 282 289 288 291 292 295 296 293 293 292 288 292 298 299 299 298 299 300 300 301 302 302 302 302 300 302 304 304 305 306 306 305 306 306 306 307 307 307 308 308 307 307 307 306 305 302 300 299 297 296 295 294 294 293 292 292 292 292 292 291 291 290 289 289 289 288 286 286 285 284 284 284 284 284 284 283 282 282
296 289 290 286 285 288 283 281 283 282 279 285 293 297 300 301 300 300 295 290 300 300 301 300 299 300 301 301 301 301 301 297 295 298 303 304 305 306 306 307 306 306 306 306 306 306 306 306 306 303 303 301 301 301 299 297 295 295 294 293 293 292 291 291 291 292 292 292 291 290 290 289 289 287 286 285 285 285 284 284 284 284 284 282 282 281
295 295 291 287 284 286 283 280 280 279 282 290 292 297 299 301 302 301 293 288 297 299 301 301 300 300 300 300 300 300 296 292 293 298 303 304 304 304 304 304 305 305 305 305 304 304 304 303 300 298 297 299 297 297 296 295 294 293 292 291 291 291 290 290 291 291 291 291 291 290 289 289 288 287 286 285 285 285 284 284 284 284 284 283 283 282
289 290 289 285 283 284 284 281 280 285 284 291 293 297 297 300 304 295 283 284 297 299 300 300 299 300 300 300 300 298 295 293 295 300 304 304 305 303 303 303 303 303 303 301 300 299 297 296 297 296 296 296 296 295 293 293 293 291 291 290 291 290 290 290 291 291 291 292 290 289 288 288 287 286 285 285 285 285 285 285 285 284 283 283 283 283
286 287 287 282 284 284 284 282 285 286 293 295 293 296 297 303 298 286 280 289 297 298 300 300 300 300 300 299 299 295 298 300 302 303 304 304 303 301 298 297 297 295 294 295 295 291 294 295 296 296 296 295 294 292 292 291 291 290 290 290 289 289 290 291 291 291 291 291 290 289 288 287 287 286 286 286 285 285 285 285 284 284 283 283 283 282
284 285 286 287 283 282 284 282 282 287 292 295 292 298 300 295 285 284 294 300 300 298 299 300 300 301 301 300 299 299 300 302 302 303 303 303 303 300 295 294 295 295 295 292 290 290 292 292 292 292 292 291 291 291 290 290 289 289 290 290 288 290 291 291 290 290 290 289 288 288 287 286 286 286 286 285 285 285 285 285 284 283 283 282 282 281
285 285 282 284 286 286 285 282 281 278 289 298 297 294 295 289 290 297 298 299 299 295 298 299 300 300 301 299 300 301 301 301 301 302 302 302 301 299 297 295 296 297 298 296 294 291 290 291 291 291 291 289 289 289 289 288 287 288 287 288 289 290 290 290 290 289 288 288 287 286 286 286 286 286 286 285 285 285 284 284 283 283 282 282 281 280
290 284 283 285 289 282 283 279 281 288 292 298 298 290 294 296 299 299 298 297 299 299 297 298 298 298 299 298 298 298 298 299 299 300 300 300 300 300 298 295 294 294 294 294 292 291 288 290 290 290 288 288 288 288 288 287 287 287 287 287 290 289 288 288 288 287 287 286 286 286 285 285 285 285 285 285 285 285 284 283 282 282 282 281 280 280
289 285 287 283 289 286 284 288 291 290 292 296 295 295 295 298 298 297 296 295 295 296 296 295 296 297 298 297 297 297 296 298 298 299 299 299 299 298 298 296 294 293 293 292 292 289 288 289 289 288 287 287 287 287 287 287 286 286 286 288 288 287 287 286 286 286 286 285 285 285 285 285 285 285 285 285 285 284 283 282 282 281 281 281 280 280
292 288 288 287 287 292 293 295 297 294 295 295 296 296 295 295 297 297 297 295 296 296 295 295 295 296 295 295 293 294 295 296 297 298 298 299 298 297 295 293 290 290 289 289 288 287 286 287 287 286 286 285 286 286 286 287 286 285 286 287 287 286 286 286 285 285 285 285 285 285 285 284 285 285 285 285 285 284 283 282 282 281 281 280 280 280
289 290 287 285 287 286 282 292 292 292 292 293 293 295 296 296 297 297 296 296 295 295 295 295 295 295 295 294 294 293 294 295 295 296 297 297 297 296 295 293 292 290 288 287 288 286 285 286 285 285 285 285 285 285 286 286 286 286 286 286 286 286 285 285 285 285 285 285 285 285 285 285 285 285 284 284 285 284 283 283 282 281 281 281 280 280
284 292 286 285 286 284 284 289 290 291 292 293 294 294 293 295 297 298 297 297 297 295 294 294 294 294 295 293 294 294 294 295 294 295 295 296 296 296 295 293 292 290 288 287 287 285 285 285 285 285 284 284 285 285 285 285 285 286 285 285 285 285 285 285 285 285 284 285 285 285 285 284 280 283 284 284 284 283 283 282 282 281 281 281 281 280
286 288 280 286 284 286 288 288 289 291 292 293 294 294 296 296 296 296 296 295 295 295 295 296 296 295 295 294 294 294 293 293 294 295 294 295 295 296 295 294 291 290 288 286 285 284 285 285 285 285 284 284 285 285 284 284 284 285 285 285 285 285 285 285 284 285 284 284 284 284 283 283 283 283 283 283 283 283 283 282 282 282 282 283 284 283
286 282 285 284 280 280 281 284 288 283 283 288 290 292 293 294 295 294 294 294 294 294 294 294 294 295 296 296 295 294 292 293 294 294 294 294 295 295 295 293 290 288 287 286 284 284 284 284 285 285 284 284 284 284 283 283 283 284 284 285 285 285 285 284 284 284 283 283 283 283 282 282 283 283 282 282 282 280 278 279 283 284 282 281 282 284
282 283 283 280 280 280 285 287 289 289 288 289 292 293 294 295 295 293 293 293 294 294 294 293 292 293 294 295 296 295 293 293 293 294 293 293 294 294 294 292 290 288 286 285 283 283 283 284 284 284 283 282 281 282 281 281 281 282 283 284 284 285 284 284 283 282 282 282 282 282 282 282 282 282 282 282 280 280 279 279 279 282 282 282 281 282
Wind_Speed
2 5 6 6 7 9 9 9 2 5 4 3 2 3 3 4 4 5 5 4 2 4 11 12 14 17 16 13 13 14 15 16 17 16 14 13 12 12 13 14 15 14 14 4 8 9 10 10 10 10 10 10 11 12 12 13 13 12 11 11 11 10 10 9 10 10 11 10 7 10 9 7 6 5 4 4 3 4 4 4 3 3 4 5 6 7
4 6 7 9 1 3 3 3 2 2 2 4 2 3 5 3 5 3 3 3 2 3 6 8 11 17 18 14 14 14 15 18 17 17 17 16 14 13 15 16 15 14 7 7 7 9 9 9 10 10 9 11 13 13 14 14 14 13 12 12 11 10 10 10 10 10 10 11 11 10 9 9 7 6 5 4 3 3 3 4 3 3 4 6 6 7
5 8 8 3 6 4 3 1 2 5 4 3 5 3 3 5 3 5 4 2 2 2 8 9 11 15 19 17 15 15 16 17 17 16 15 14 14 13 14 15 14 11 11 9 11 10 10 11 11 10 9 10 12 12 13 13 13 13 12 11 11 10 10 10 10 11 11 11 11 9 8 10 6 4 3 4 4 3 2 3 2 3 3 7 7 7
7 8 7 5 4 4 3 3 3 4 4 4 5 5 5 3 1 3 4 0 4 3 7 11 12 14 19 18 19 18 17 17 17 16 15 13 14 16 17 13 10 12 12 12 11 11 12 12 11 10 10 11 11 11 12 13 14 12 12 11 12 11 11 10 11 11 12 12 3 1 5 5 4 5 4 5 4 3 2 3 1 1 3 5 6 7
7 4 5 3 4 4 5 4 5 5 6 7 6 5 6 3 3 4 3 4 5 9 6 10 11 12 12 14 10 7 9 11 11 11 12 12 12 14 11 11 13 16 13 11 10 9 11 11 12 12 10 10 10 11 12 12 13 10 13 13 13 11 11 10 11 12 10 7 6 4 5 5 6 5 5 4 3 4 3 2 2 3 3 6 6 6
7 4 4 5 3 5 5 6 8 6 7 5 8 9 7 6 8 2 4 7 5 6 5 4 7 6 3 7 8 6 3 8 9 10 12 12 11 11 13 14 12 12 11 12 11 9 9 10 10 10 11 11 11 11 11 12 12 11 11 12 12 9 10 11 12 13 8 9 7 7 7 7 6 6 7 8 9 7 6 7 4 3 2 3 6 5
2 4 5 6 6 5 6 6 5 6 6 6 1 2 8 8 4 4 6 4 4 4 3 3 4 10 4 13 13 11 12 15 13 11 12 12 9 10 11 8 8 9 8 8 8 8 7 9 9 10 11 12 11 11 10 10 12 12 11 12 12 10 10 10 12 11 7 8 8 8 8 7 7 6 5 4 5 6 6 5 6 4 3 2 4 6
5 5 4 4 6 6 5 6 6 9 6 6 3 1 2 0 3 4 3 4 8 6 7 8 7 11 11 11 13 14 16 16 14 12 11 11 11 10 9 7 6 6 5 4 5 8 10 8 10 11 11 11 11 10 10 10 11 13 12 12 13 10 9 10 11 10 9 8 8 9 8 7 7 7 7 7 6 5 5 6 6 4 4 3 3 3
9 8 8 9 8 7 9 2 7 10 7 2 2 3 4 2 1 0 2 4 3 6 8 6 5 5 9 3 12 13 13 12 12 11 12 12 8 7 6 4 3 2 1 3 4 5 7 8 8 8 9 9 10 10 10 10 10 10 11 11 12 10 10 10 10 10 9 8 9 9 8 7 7 7 6 7 6 6 6 6 4 4 4 4 3 3
3 1 7 9 7 8 4 5 3 9 8 3 3 5 6 5 3 2 2 3 4 4 10 5 8 4 17 9 7 8 9 11 9 11 12 9 5 4 3 2 2 3 2 1 2 1 2 4 5 5 6 9 9 9 9 10 9 10 10 11 12 12 10 10 11 10 11 10 9 9 10 9 8 5 6 6 6 5 6 7 6 4 4 4 4 3
2 1 3 2 6 1 7 7 5 5 6 9 7 7 5 3 2 1 1 3 3 7 11 8 10 3 9 13 8 9 8 9 8 7 5 4 4 5 4 4 3 3 3 2 2 3 3 2 3 5 7 8 9 8 10 10 10 10 11 12 13 12 10 10 12 12 12 11 10 10 11 11 9 8 7 7 5 7 7 9 6 6 4 4 4 4
2 3 3 1 3 5 7 7 6 2 6 7 4 5 4 2 2 3 3 2 4 9 2 4 5 8 3 12 5 6 7 10 6 6 5 3 6 4 5 4 4 3 3 4 3 4 5 5 4 5 7 8 10 9 10 10 10 11 11 11 13 13 13 11 11 13 12 10 10 10 10 11 9 9 8 9 10 11 9 8 8 5 4 5 4 5
5 7 4 4 4 6 6 8 5 3 2 3 6 6 4 3 3 4 4 5 8 9 3 1 2 5 15 21 3 4 2 6 6 6 6 4 5 4 3 4 5 5 4 4 4 4 5 6 7 8 8 9 10 10 12 12 11 11 12 13 14 13 12 11 10 12 12 11 10 10 9 8 7 7 8 9 11 9 9 8 9 8 8 6 5 5
3 3 8 5 3 7 8 9 6 4 8 9 10 8 6 7 7 8 7 4 4 2 2 2 1 8 15 16 14 19 18 14 10 8 7 7 10 11 8 3 3 5 6 5 4 4 5 6 7 8 9 9 9 11 11 12 11 11 11 13 13 12 12 11 11 11 11 12 10 10 7 7 8 7 8 6 8 8 8 6 10 10 9 8 9 9
8 6 10 12 6 11 10 12 10 6 12 12 9 10 8 6 5 7 5 8 6 5 2 2 2 6 3 3 5 5 5 4 4 6 5 4 5 7 6 5 8 7 6 6 4 6 7 7 8 8 8 9 9 10 11 10 11 10 10 11 12 11 12 13 14 11 12 10 10 9 9 8 8 6 6 6 5 7 7 7 9 8 8 7 8 7
14 10 5 14 1 18 14 10 7 7 6 8 7 5 8 11 5 10 2 3 3 0 2 4 7 5 9 8 7 4 4 7 5 7 7 9 9 6 5 7 9 6 4 4 6 8 7 7 8 7 8 9 9 11 10 12 11 11 11 11 12 13 13 14 14 13 11 11 8 9 9 7 9 8 5 4 4 6 7 6 8 8 7 7 8 7
3 8 8 5 2 16 10 2 6 6 7 8 6 7 8 7 2 3 1 3 2 2 11 5 7 11 11 19 22 19 18 15 10 10 7 7 6 4 6 8 9 3 3 4 5 6 7 7 8 8 8 8 9 9 10 11 11 12 11 11 12 13 12 14 13 13 11 10 10 11 9 7 8 7 9 8 8 8 7 6 6 6 7 7 8 7
6 1 3 6 6 1 4 4 1 5 3 7 6 8 6 3 5 3 7 2 4 10 8 4 11 14 6 13 4 5 11 13 14 13 11 11 10 8 9 9 6 5 6 6 5 5 6 7 8 7 7 8 9 10 10 11 10 10 10 11 12 12 14 14 13 14 12 11 11 10 10 9 10 8 8 8 8 8 8 7 7 5 6 6 5 5
5 9 5 1 3 5 2 1 2 2 4 3 1 3 7 5 7 9 3 9 9 9 7 10 14 13 14 19 8 1 7 5 7 7 8 8 9 9 10 10 6 6 6 6 7 6 5 6 7 7 7 7 8 9 9 10 10 10 10 11 11 13 14 13 11 12 10 11 8 8 9 11 11 9 7 8 8 7 8 8 7 7 6 4 5 5
3 7 2 2 1 4 5 8 9 8 3 1 2 3 2 2 7 8 9 3 4 10 7 8 11 12 13 14 13 17 16 15 13 11 9 9 10 9 7 6 2 4 5 6 7 7 5 5 6 7 7 8 9 9 9 10 10 11 11 11 11 11 12 12 12 12 12 11 9 8 8 9 10 9 9 9 7 9 8 8 8 6 5 5 5 6
6 6 10 4 3 3 6 9 12 10 10 7 6 9 4 4 3 5 2 7 6 6 8 8 11 11 15 8 12 13 12 10 10 9 6 5 7 7 7 4 1 1 3 3 3 3 3 4 5 6 6 6 7 7 8 10 11 11 10 11 12 13 13 14 12 12 11 9 10 10 11 9 11 10 7 9 9 10 9 8 8 7 6 5 6 7
4 8 9 6 4 9 8 10 13 13 15 14 14 15 15 10 7 8 9 4 2 5 5 6 12 12 20 4 12 13 10 6 3 4 4 5 5 7 4 1 1 2 3 2 3 3 4 4 5 5 5 5 6 8 10 10 10 12 12 12 12 12 13 13 12 12 11 10 9 11 10 11 9 11 9 10 9 10 9 8 8 8 7 8 7 8
9 4 8 8 8 10 6 4 4 5 4 5 8 11 12 11 9 8 10 5 1 5 2 4 9 18 16 6 2 7 3 3 4 2 5 6 7 5 1 2 1 1 3 2 3 4 5 6 6 7 7 8 8 8 10 11 12 13 14 13 13 13 14 13 11 11 11 10 10 10 10 10 11 10 11 11 9 11 10 9 9 8 9 9 8 8
7 2 3 8 5 3 5 4 4 3 2 6 7 2 2 11 11 10 8 2 5 4 6 7 10 15 9 7 1 4 4 3 2 1 6 6 3 3 1 0 2 3 4 4 3 3 4 5 6 6 7 8 9 9 10 9 9 10 12 14 13 15 14 13 11 11 12 11 11 11 10 12 10 11 12 12 10 11 10 9 9 8 9 9 8 9
5 3 5 5 6 5 7 3 5 2 3 5 7 7 7 6 8 4 2 2 5 9 9 9 14 13 13 7 3 4 5 4 5 4 3 5 4 2 1 2 1 2 3 3 4 5 4 4 5 6 7 8 9 10 10 10 10 10 10 11 13 13 14 13 11 11 12 12 12 12 11 11 12 13 12 12 10 12 10 10 9 9 10 9 9 9
3 3 7 8 10 11 11 9 9 8 8 6 8 12 13 13 12 5 8 5 10 11 15 12 13 18 22 5 2 6 6 7 6 5 4 4 4 2 3 3 2 3 5 6 6 5 6 5 4 5 6 7 9 9 9 10 10 10 10 10 10 10 12 13 11 12 12 11 12 12 12 11 11 13 13 14 11 11 11 11 11 11 10 10 11 10
2 1 7 10 11 12 9 1 6 9 7 7 10 14 14 14 15 11 4 8 14 15 12 12 16 21 27 24 20 10 3 6 6 6 6 6 5 5 5 3 3 5 7 8 6 4 3 5 7 6 6 8 9 10 9 10 10 10 10 11 10 9 10 11 12 12 12 12 12 12 13 13 12 10 11 12 13 12 11 12 11 12 12 11 11 12
2 1 6 10 13 16 16 15 4 11 10 13 12 11 15 14 14 12 12 17 17 10 17 14 18 16 23 28 24 19 18 10 8 9 12 5 4 5 2 3 4 7 9 5 5 6 7 7 6 7 8 9 10 8 7 8 9 10 11 11 10 10 10 9 11 12 12 12 12 13 13 12 11 11 11 10 12 13 13 13 12 12 11 11 12 12
5 8 13 11 16 18 20 19 17 13 12 11 14 13 15 16 15 15 18 21 18 14 17 16 13 15 22 27 28 19 14 18 17 16 13 12 9 4 4 5 6 7 9 8 7 7 7 9 10 10 9 10 9 9 9 9 9 9 9 10 11 11 12 10 10 12 12 13 13 13 12 12 11 10 11 12 12 13 14 12 12 12 11 11 10 9
1 8 9 12 15 16 19 21 19 19 18 16 15 14 13 17 20 21 21 22 22 18 17 20 22 24 22 25 28 21 16 18 20 14 11 13 9 8 6 6 7 9 11 9 8 9 10 10 10 11 12 12 11 11 10 10 11 12 12 11 11 12 11 10 11 12 13 13 13 11 11 12 11 11 12 13 13 14 14 12 12 11 11 11 10 10
5 6 10 8 8 12 16 18 17 17 14 12 12 14 16 16 17 22 21 18 16 19 22 24 24 25 21 24 24 23 22 19 16 20 17 14 12 10 10 12 14 15 14 13 13 11 10 11 12 13 12 12 12 10 10 10 11 10 11 11 12 12 12 11 11 12 12 13 12 11 11 11 13 12 13 13 12 12 14 13 12 12 12 12 12 12
5 3 4 2 5 10 14 14 16 15 10 9 10 14 17 21 21 15 13 12 13 18 21 18 19 18 21 17 17 23 23 20 19 22 21 16 14 12 14 16 17 16 17 18 20 20 20 20 18 16 15 12 12 10 9 10 10 11 14 13 13 12 10 12 12 12 13 12 11 12 13 13 13 13 13 12 13 13 11 10 10 11 11 11 10 9
5 4 4 3 9 9 12 12 11 9 8 11 14 20 23 19 15 12 12 16 22 20 15 13 16 16 21 20 19 20 25 20 20 18 16 15 13 15 16 17 17 18 18 18 19 20 20 20 19 18 16 11 11 13 14 13 11 13 14 13 12 9 11 13 12 12 12 12 13 13 13 12 13 13 12 13 11 11 10 10 10 10 10 11 9 8
5 7 6 5 6 2 10 10 4 6 14 12 12 19 14 17 17 18 19 22 21 16 15 17 18 19 21 23 24 24 21 18 15 19 18 16 14 16 15 16 17 17 18 18 19 19 18 17 15 15 14 13 14 15 16 13 14 13 10 10 9 12 12 12 13 12 13 12 12 13 13 13 12 12 12 10 10 11 11 11 11 10 9 9 9 9
9 8 7 5 5 6 6 7 10 16 12 10 10 9 14 18 19 23 25 24 21 18 19 21 24 26 27 26 24 23 22 22 19 20 21 20 16 13 13 12 14 16 17 18 19 18 18 17 17 16 15 10 9 10 8 9 11 9 9 10 12 11 12 12 12 12 11 13 12 12 13 13 13 13 10 10 10 11 12 12 10 10 9 9 10 10
8 10 6 8 7 5 7 9 14 6 1 1 7 12 15 17 19 16 18 19 23 24 23 22 24 26 26 26 25 23 22 21 19 17 21 25 19 15 14 15 18 18 19 19 19 18 17 15 16 16 15 11 6 5 8 10 10 10 10 9 10 10 11 11 11 12 11 13 13 13 13 13 13 11 10 12 11 11 11 11 12 11 9 9 8 7
14 9 8 9 9 10 7 13 18 7 17 11 11 11 11 10 9 14 13 15 20 19 19 20 24 26 26 25 23 20 17 15 15 18 22 20 16 14 15 18 18 18 17 18 19 19 17 14 13 13 8 4 3 6 8 8 8 8 8 9 10 10 11 12 13 13 13 13 12 12 12 13 13 10 10 12 11 12 12 12 11 9 8 10 9 10
13 13 8 11 8 9 11 14 12 10 15 14 19 19 13 9 12 11 12 12 10 14 16 21 23 25 25 22 18 17 13 11 14 17 21 16 10 13 16 15 16 16 16 18 15 13 14 13 10 4 2 4 3 3 3 6 9 9 10 11 11 11 12 13 14 13 12 12 11 11 11 13 12 10 11 12 13 12 10 10 9 10 10 12 11 11
16 16 13 14 10 10 12 14 12 13 9 5 15 14 13 13 12 5 8 13 8 16 17 18 21 20 18 14 15 13 7 11 15 16 17 14 8 10 11 9 12 13 12 11 10 10 10 6 3 3 2 3 7 4 5 7 9 9 10 9 7 8 8 8 9 11 11 11 9 9 10 10 10 10 11 12 11 11 12 12 12 10 9 9 7 9
16 15 13 16 16 15 12 12 14 7 9 9 7 12 9 4 4 4 12 11 10 18 17 17 18 15 12 12 11 11 11 13 15 17 15 14 11 5 4 5 7 8 7 5 4 3 5 6 6 6 6 7 7 3 6 7 9 8 9 6 7 8 10 8 9 7 7 8 7 8 7 8 10 10 12 12 10 9 9 7 6 7 7 7 6 5
11 10 15 18 11 14 17 12 9 6 5 6 8 7 5 5 8 10 16 4 6 7 7 12 11 8 11 13 10 11 12 14 14 15 15 14 13 6 1 1 2 4 6 6 7 6 5 5 5 7 6 4 1 3 5 7 8 9 9 8 7 11 8 6 7 8 8 8 7 9 8 8 9 11 9 9 9 8 7 7 9 8 9 8 7 7
6 6 5 12 16 16 14 15 9 8 3 2 5 2 3 5 9 13 7 2 5 6 6 8 13 9 8 13 11 10 10 12 13 12 13 14 12 4 2 0 1 3 4 6 5 4 4 4 3 4 3 1 1 2 4 4 6 8 7 8 9 8 6 8 8 8 8 8 7 7 8 8 8 9 9 9 9 9 8 7 8 8 9 7 7 9
4 6 4 9 7 11 11 12 11 12 3 14 3 0 3 6 10 9 7 5 3 2 5 6 5 6 5 7 8 8 9 11 11 11 12 13 11 9 6 4 6 7 8 6 5 4 3 4 4 4 3 1 2 2 2 4 6 5 4 6 5 6 7 8 8 9 7 7 8 8 9 8 10 9 8 9 10 11 10 9 9 9 9 8 8 9
7 10 5 5 4 7 8 11 6 1 4 4 4 7 3 6 9 12 11 13 11 5 5 8 8 6 6 7 8 10 13 17 18 16 14 14 14 13 8 5 5 5 6 6 5 3 2 5 4 2 2 1 2 2 3 5 6 5 4 4 5 6 4 5 5 6 7 7 8 9 9 9 9 8 8 9 9 9 9 9 9 9 8 9 8 7
11 15 7 12 4 6 5 6 2 2 1 3 5 5 7 9 9 9 7 8 9 11 10 10 13 14 14 8 7 10 14 16 16 16 15 15 15 13 12 8 5 7 7 7 6 2 2 6 5 4 2 3 3 3 3 4 7 5 6 4 4 5 5 6 6 7 7 8 8 8 8 8 8 8 8 8 9 8 6 9 10 7 6 8 6 5
6 6 7 3 7 8 10 10 2 4 1 5 3 5 7 7 8 6 2 6 5 6 6 7 8 11 14 12 12 13 14 15 17 17 17 15 13 13 11 8 5 4 5 5 5 5 3 3 2 3 4 3 3 4 4 5 6 9 7 4 6 5 6 7 8 7 8 7 7 8 8 9 8 8 8 8 7 7 6 8 8 7 7 6 7 7
1 5 3 2 5 6 4 1 4 8 10 9 11 10 7 4 6 6 5 5 6 5 7 7 7 10 13 13 12 14 18 20 18 17 16 14 14 13 12 11 10 7 8 8 9 4 4 4 5 7 6 6 3 4 4 5 4 5 4 6 6 7 8 8 8 8 7 8 7 7 8 9 7 7 7 8 7 6 6 6 7 7 8 8 8 8
4 1 5 3 5 6 6 12 13 14 10 8 7 6 10 9 9 9 8 7 7 7 7 9 9 11 12 13 13 13 15 18 17 17 16 15 14 13 12 12 12 9 9 7 6 5 5 6 8 8 8 8 6 6 6 6 6 6 7 7 8 9 9 9 9 9 9 9 7 6 7 7 10 9 6 5 6 6 6 5 5 6 7 8 8 8
6 10 7 1 7 4 11 11 13 16 9 5 5 4 6 7 9 10 12 12 11 10 11 11 8 9 11 14 14 14 15 16 16 15 15 15 15 15 14 13 11 11 8 6 6 7 10 9 9 9 9 8 5 6 6 6 6 7 9 9 9 11 11 10 10 10 11 8 7 6 5 5 6 6 7 6 7 6 5 6 6 5 4 4 5 6
9 11 9 9 12 9 9 7 7 12 9 10 10 11 10 9 8 8 10 11 11 11 11 12 13 13 12 12 13 13 14 15 17 16 15 15 16 16 16 14 10 9 8 6 4 6 8 9 8 8 9 6 5 6 6 5 5 5 6 8 9 10 12 11 10 9 8 9 7 7 6 6 6 8 8 8 9 8 8 10 10 4 5 4 6 9
13 10 7 10 10 11 10 11 9 10 11 12 14 13 12 9 8 8 10 12 13 13 12 10 12 15 16 16 13 12 13 14 17 17 15 15 17 16 13 13 12 11 11 5 5 8 9 8 6 5 7 5 4 5 5 4 3 3 3 5 6 7 9 10 9 6 7 9 9 11 10 9 8 8 8 8 8 7 8 6 7 12 12 10 8 9
Wind_Direction
6 207 199 207 221 209 212 227 25 65 31 37 345 294 271 282 280 107 108 85 156 276 256 255 262 268 267 267 269 273 275 269 265 261 253 249 242 239 243 244 246 245 247 211 173 165 176 176 177 178 181 188 189 193 192 193 194 193 189 182 185 182 180 179 175 188 189 190 182 198 196 186 174 172 157 164 149 163 160 147 163 150 140 143 145 157
242 227 220 228 272 9 165 96 115 34 327 291 287 276 252 203 268 83 109 138 120 267 282 285 282 274 275 270 268 270 267 266 260 258 255 249 241 238 235 242 243 244 242 157 167 174 172 171 173 174 182 186 189 196 193 195 192 192 189 187 183 176 183 188 184 187 196 194 196 196 195 192 176 157 164 167 168 157 140 151 157 161 143 140 147 156
203 220 231 194 98 88 65 188 198 255 238 212 259 255 274 247 266 106 78 130 153 221 268 283 282 281 281 280 272 263 258 260 261 256 259 261 258 244 239 240 245 244 238 206 207 180 178 174 174 178 187 194 201 195 197 195 191 190 190 191 185 180 183 189 188 192 195 195 198 200 194 198 161 133 148 151 141 129 138 141 154 156 126 152 156 158
226 223 214 108 131 139 116 166 194 199 233 240 215 233 238 69 343 237 108 91 189 238 297 303 293 282 280 273 264 252 242 249 258 264 264 263 261 253 245 243 245 245 241 234 223 194 179 173 176 181 189 194 196 198 194 194 193 190 193 190 186 182 183 185 189 195 197 193 138 119 168 127 125 143 102 96 115 127 121 155 132 62 135 143 157 162
225 67 58 151 141 202 190 170 196 213 234 215 239 244 256 262 266 272 7 302 222 236 273 285 277 263 253 263 264 253 227 243 254 257 255 250 244 251 260 260 251 251 247 244 239 214 171 173 184 188 187 186 191 197 195 193 192 192 193 190 187 183 181 185 188 191 189 134 131 117 93 95 85 95 137 134 154 163 159 134 179 170 141 161 160 156
232 95 118 142 174 185 190 195 206 221 247 221 208 227 256 285 300 324 344 343 291 264 152 286 313 276 255 243 264 271 218 223 223 221 238 238 229 230 241 239 241 243 244 245 240 231 181 180 182 185 185 188 192 197 197 192 195 191 190 189 187 178 183 187 190 195 166 167 156 154 154 167 172 169 176 187 180 170 175 186 163 135 157 154 158 149
275 119 186 154 160 169 208 234 198 210 244 255 204 272 249 266 319 319 304 318 282 293 102 265 297 283 279 277 271 273 273 274 271 254 257 261 240 222 226 228 229 234 235 229 231 232 205 185 182 185 186 191 192 197 189 191 195 194 189 187 189 185 180 185 193 187 163 165 175 180 185 176 184 175 183 173 152 162 171 160 166 154 150 150 154 156
135 177 157 180 167 174 190 214 175 202 230 234 42 306 63 213 235 283 305 267 275 319 269 185 234 275 278 252 261 260 263 267 270 262 257 259 249 243 241 235 234 238 243 232 227 223 222 199 186 191 188 189 194 187 185 189 192 193 191 187 187 185 181 183 190 175 181 176 175 182 189 188 189 190 174 173 159 153 149 151 161 153 163 145 159 159
168 172 182 180 196 198 215 248 161 193 223 48 61 25 75 79 57 102 253 282 300 330 294 171 204 259 261 212 209 232 250 246 249 259 260 253 249 240 251 255 237 229 225 230 225 228 219 216 203 196 187 187 186 185 185 189 187 190 188 187 185 183 180 188 176 175 180 182 177 184 190 194 194 190 166 158 150 148 145 154 152 160 143 150 155 171
1 148 197 197 187 214 120 48 9 181 216 134 133 86 88 90 84 165 274 275 290 297 271 162 182 258 286 263 188 195 228 244 247 253 253 263 160 164 184 146 131 130 152 210 245 218 211 216 205 196 178 178 183 182 182 183 183 187 186 186 185 190 184 187 181 174 185 188 178 182 193 189 186 159 145 151 148 146 151 167 165 158 152 158 158 162
62 193 350 252 218 50 94 65 31 44 63 135 149 115 117 108 135 182 283 274 290 252 266 166 180 215 291 288 191 163 200 198 234 238 244 134 136 148 130 126 139 142 152 154 157 148 128 96 155 166 179 180 178 178 183 184 185 188 189 188 192 192 186 185 182 179 187 190 191 193 197 194 182 157 151 147 144 163 168 178 166 166 161 159 158 158
156 101 182 167 66 118 113 83 51 17 142 163 153 160 157 184 165 218 215 148 236 255 68 108 170 187 233 286 134 176 181 201 214 238 235 191 135 139 144 144 134 137 149 152 165 160 160 150 163 172 183 183 181 180 185 189 186 190 191 190 191 193 195 190 187 184 188 187 194 199 202 198 185 169 175 175 168 177 177 176 171 160 158 162 160 160
205 217 123 102 293 160 157 124 89 110 196 224 172 177 204 221 155 225 179 217 204 246 125 50 126 240 228 245 178 150 203 244 254 248 262 296 292 303 294 147 155 158 159 169 162 165 172 178 175 183 188 183 187 188 189 187 189 190 194 193 192 194 195 194 192 188 189 190 194 195 196 188 160 169 172 178 181 173 176 170 172 168 177 168 169 177
221 113 168 159 117 234 201 171 142 172 195 195 195 183 189 227 226 243 220 224 255 126 107 106 175 250 265 279 261 261 250 235 224 230 255 275 280 282 278 253 199 170 181 170 175 184 193 186 186 185 185 186 189 192 190 190 190 191 196 197 195 195 194 201 208 196 191 194 195 196 191 186 189 182 175 174 179 176 182 171 180 182 183 180 184 179
226 224 212 153 221 167 210 222 179 181 174 200 203 192 203 210 220 237 215 227 224 259 104 231 143 241 232 231 359 324 7 333 271 265 296 307 289 283 297 296 275 246 182 172 187 214 206 193 184 183 186 186 190 190 189 191 193 192 193 194 195 198 204 210 215 205 197 194 192 191 196 195 182 175 176 178 173 171 178 180 179 178 179 180 178 177
215 246 130 172 97 156 193 216 212 163 172 196 214 229 236 234 232 254 304 305 306 336 212 179 232 271 243 333 279 282 297 280 254 263 252 249 251 254 265 264 259 247 187 180 218 230 219 192 184 184 187 185 186 188 187 191 190 192 194 191 196 200 206 211 211 210 198 197 186 187 190 183 178 182 171 178 169 186 194 187 192 183 183 184 185 178
106 235 120 125 140 179 183 138 183 179 215 175 162 211 210 31 238 266 136 117 67 303 258 231 259 256 285 279 262 249 235 236 225 216 205 234 228 217 236 247 248 157 170 206 228 221 208 199 192 190 184 183 184 187 190 191 191 193 190 190 195 200 205 212 208 202 196 195 187 192 187 177 184 179 190 191 190 192 190 169 184 183 189 185 190 172
242 167 6 168 194 151 24 335 76 31 350 113 208 203 64 36 8 222 251 167 215 244 262 213 243 272 278 280 31 203 219 233 244 247 247 255 259 241 241 241 226 158 191 210 237 231 211 199 192 189 190 189 186 187 188 191 191 194 194 192 193 199 202 207 192 194 194 192 194 191 185 188 196 192 189 190 193 192 197 198 187 185 184 178 146 121
187 252 168 287 28 105 75 96 207 92 4 308 207 42 174 208 217 212 231 239 240 243 261 246 257 258 249 257 254 248 157 196 198 207 214 229 237 246 251 256 253 140 165 190 224 233 204 185 184 188 192 194 192 187 187 188 189 191 196 197 198 202 205 200 190 190 194 195 192 190 184 189 192 188 180 194 191 190 190 184 182 188 194 125 121 129
181 235 189 334 184 117 159 182 210 187 152 248 325 241 285 312 240 204 200 251 244 254 246 260 257 259 241 248 264 264 263 260 262 255 243 226 229 243 255 265 276 136 176 201 214 224 206 176 175 180 185 188 193 189 187 188 188 194 194 196 200 204 206 198 191 189 192 190 186 179 176 183 190 189 185 186 157 187 186 170 183 181 184 169 144 150
232 165 254 111 290 166 190 197 213 171 173 192 217 228 185 208 32 350 292 222 224 246 249 273 270 260 261 246 261 269 273 260 258 254 238 231 240 247 253 261 12 288 248 217 195 184 188 178 173 173 176 184 188 192 190 188 190 192 194 197 197 201 205 206 196 193 195 185 188 177 187 179 188 187 173 185 178 176 171 175 180 183 179 146 168 160
217 187 228 138 181 206 226 191 205 199 190 188 192 208 205 185 195 220 243 200 230 228 246 259 262 284 268 254 260 272 278 285 300 254 236 225 251 250 242 112 121 284 294 265 131 144 169 175 170 167 171 177 188 196 197 190 188 191 196 198 198 202 205 205 196 193 193 190 190 185 185 184 177 193 189 194 183 187 186 180 182 178 167 177 175 170
202 212 223 205 199 208 204 62 21 20 345 268 224 224 211 209 194 197 228 194 146 234 326 261 283 264 265 111 61 250 247 271 270 255 257 257 251 265 335 94 96 255 257 244 193 179 181 179 172 175 177 183 198 208 207 199 194 192 192 195 198 199 203 201 193 191 192 193 193 191 189 186 193 190 192 195 182 189 185 183 181 176 179 180 174 173
74 192 205 243 227 139 90 107 52 13 344 278 257 1 222 215 203 221 232 226 215 176 209 225 238 263 275 89 295 75 54 55 60 213 261 257 237 226 229 194 257 238 233 230 238 222 200 177 165 165 178 190 198 206 210 214 216 207 196 194 192 198 198 200 194 190 192 193 194 191 183 192 184 182 196 199 192 191 182 176 180 176 183 180 173 175
185 184 215 221 229 220 196 161 218 138 200 237 240 205 230 247 218 215 50 57 253 216 222 218 240 245 269 125 148 154 158 192 208 217 211 228 252 272 306 287 253 279 295 258 242 240 216 195 186 186 190 198 200 201 202 209 213 215 216 205 202 195 191 194 190 184 189 188 185 186 186 186 191 195 196 195 187 189 178 177 176 180 183 177 176 176
191 170 170 202 215 218 211 205 211 192 196 209 220 235 216 210 214 156 225 209 241 239 234 229 248 259 263 258 144 172 182 196 215 210 196 236 249 293 288 287 297 243 242 247 241 219 218 222 212 204 198 206 208 203 198 203 212 214 213 215 213 205 193 187 174 180 182 186 186 188 189 187 180 191 189 191 183 182 180 178 180 184 186 183 179 176
176 244 192 198 217 232 237 62 69 135 146 184 208 206 213 213 214 219 229 230 227 239 243 235 243 260 269 268 265 255 169 236 239 210 204 221 229 230 246 266 276 277 255 241 239 236 230 232 227 214 208 212 215 202 193 198 205 209 210 210 206 209 205 193 181 177 184 187 190 191 193 189 186 181 185 189 190 179 174 181 180 183 186 183 179 178
71 260 237 233 234 243 254 263 233 148 177 200 210 206 206 204 202 206 213 228 231 247 253 239 237 250 263 271 266 265 274 274 260 259 259 238 223 221 171 233 245 252 260 253 232 229 234 238 227 210 209 217 224 212 197 198 206 207 207 207 200 200 204 202 190 182 183 186 194 197 196 191 184 179 185 182 186 186 183 182 183 186 186 181 182 182
157 225 232 236 252 255 259 260 262 256 241 222 216 200 196 202 201 204 221 232 227 227 244 255 249 243 255 263 271 270 275 276 276 276 266 253 248 150 182 223 238 246 253 242 237 231 229 223 223 211 197 207 211 210 202 199 206 213 215 213 204 196 203 198 194 188 184 188 197 199 194 188 186 183 180 181 184 183 185 183 182 180 181 183 186 189
168 225 232 214 235 247 254 255 251 251 256 254 247 237 209 194 204 207 220 225 227 234 244 255 259 255 255 266 270 280 281 276 281 289 288 260 241 232 220 231 233 246 253 246 238 235 229 228 230 227 215 199 201 203 200 202 203 203 207 209 204 198 198 192 196 191 188 192 198 194 191 189 185 183 173 177 183 185 183 181 179 179 179 183 186 186
166 238 223 243 253 254 256 258 260 258 258 264 262 259 255 245 216 208 217 225 229 237 240 242 249 260 257 257 273 281 273 274 275 274 266 254 249 248 246 251 254 251 253 255 259 254 248 238 229 233 225 215 200 198 205 207 206 202 205 210 206 200 193 190 196 200 194 196 193 188 186 186 186 181 183 184 179 176 179 179 179 180 183 184 185 185
161 274 38 39 250 251 256 259 263 265 262 267 269 259 248 238 237 220 220 211 220 229 233 239 250 255 264 268 265 269 276 274 274 271 267 267 265 252 255 253 259 256 256 255 257 261 265 268 266 261 254 234 213 187 200 207 205 196 206 205 202 198 185 192 200 199 200 195 188 190 189 191 184 189 192 185 184 175 175 176 180 184 185 183 182 187
171 169 203 176 238 238 255 254 260 271 274 253 244 243 236 241 246 248 239 222 224 228 236 237 240 247 261 269 267 262 263 266 270 275 278 270 250 249 250 253 259 260 261 262 260 260 261 262 263 262 257 240 216 204 205 207 200 205 208 200 200 182 186 197 199 199 197 193 192 194 193 190 188 192 189 189 183 175 172 176 179 183 183 184 179 173
170 192 218 177 244 205 248 258 267 257 243 235 225 233 228 229 225 232 237 231 228 217 230 236 250 256 258 258 253 258 268 270 268 270 266 269 257 255 251 254 259 261 263 263 262 262 263 264 264 262 256 236 225 217 217 199 203 210 201 192 181 186 192 193 199 199 198 193 195 196 195 191 188 191 188 182 175 175 174 174 181 182 182 179 176 178
191 194 222 200 227 234 254 266 269 248 242 237 238 242 232 234 228 226 230 232 234 231 233 237 242 245 247 254 263 266 267 270 268 270 278 272 265 268 269 265 262 261 263 265 266 267 267 266 265 266 264 252 226 221 194 193 202 199 183 185 189 191 192 196 196 198 195 195 195 194 193 190 189 189 184 176 172 174 176 175 174 177 177 176 180 179
190 198 202 222 222 247 248 241 250 205 153 249 269 241 237 229 229 236 248 244 244 241 234 235 241 246 252 256 258 260 262 269 275 272 270 271 270 272 271 263 261 261 264 267 270 271 269 266 268 269 269 265 234 210 192 205 192 191 194 183 188 187 194 194 197 200 196 198 197 197 196 188 187 186 172 167 168 173 176 177 175 172 166 167 175 175
217 213 206 236 202 237 214 235 245 306 290 257 264 240 216 212 196 214 240 236 237 240 243 245 248 249 251 252 255 263 270 274 277 274 263 264 270 262 258 260 262 263 263 266 266 270 275 281 280 277 282 277 221 201 203 189 169 179 171 180 193 190 193 193 201 204 201 201 197 192 181 178 182 180 167 168 170 175 176 175 170 166 162 171 177 174
222 227 195 225 219 214 228 245 249 242 244 246 239 248 244 218 220 218 227 253 238 243 233 237 240 246 250 253 257 262 269 278 271 267 268 267 255 259 254 259 263 261 259 261 269 275 277 277 282 298 297 283 254 207 168 162 169 178 187 191 190 187 195 197 204 202 198 198 190 186 178 174 178 173 167 174 178 174 172 171 171 173 172 175 174 181
211 213 222 228 238 219 222 229 232 235 237 221 256 252 240 236 229 196 226 249 211 247 241 242 248 249 252 258 257 259 264 258 259 262 273 280 268 257 264 256 253 259 262 263 264 270 282 304 346 334 321 265 256 207 170 172 174 184 192 183 176 180 186 196 200 199 197 196 183 171 164 168 172 167 169 176 178 172 171 177 179 174 168 175 172 181
210 211 210 227 230 234 238 236 235 223 252 235 254 258 255 184 193 130 249 244 229 237 241 247 247 248 255 251 252 246 237 252 256 263 271 280 283 283 276 269 273 282 291 319 342 4 332 323 308 283 262 252 252 180 175 171 182 196 192 173 176 182 201 195 196 182 182 176 159 150 155 165 168 169 171 174 171 173 174 160 136 153 152 164 153 153
214 214 215 219 208 222 227 247 256 253 239 261 260 274 86 160 147 222 240 263 246 264 261 264 270 238 234 247 239 248 236 244 256 272 280 284 287 276 108 34 333 336 309 317 305 346 311 294 271 275 277 269 223 145 160 165 183 195 193 176 178 205 192 171 162 168 167 165 150 153 162 164 168 164 165 165 165 158 156 158 163 155 163 161 159 159
267 254 239 227 225 227 228 233 245 267 230 195 240 58 123 141 218 235 252 322 343 305 265 262 271 256 229 234 237 241 251 253 253 263 275 281 284 315 105 59 343 289 243 224 247 279 286 278 268 272 288 36 103 149 154 169 197 201 181 185 202 187 158 157 158 159 160 158 158 159 156 153 155 157 156 153 151 157 156 155 155 158 160 159 161 164
206 232 207 223 226 232 234 241 241 241 127 218 185 310 182 231 249 262 314 330 58 322 300 293 314 326 325 302 301 308 311 312 309 301 296 298 296 287 267 229 239 248 264 265 242 190 214 271 260 240 241 108 152 192 182 183 200 203 184 202 179 149 155 153 152 154 155 147 146 152 152 152 153 154 153 156 157 158 154 149 152 150 153 153 153 156
162 247 237 250 206 256 229 227 233 44 15 326 191 236 136 247 328 330 334 301 318 346 352 324 318 327 343 331 321 320 310 303 297 294 293 291 289 286 272 238 238 251 254 253 251 243 183 238 250 228 153 159 177 196 185 182 196 192 187 183 149 145 143 147 146 142 143 144 145 145 150 152 151 148 150 153 152 156 151 149 150 152 159 158 153 147
166 232 223 257 165 218 240 253 182 231 269 355 18 333 336 327 322 327 342 335 328 323 356 343 325 329 327 317 307 298 296 291 286 289 290 288 288 289 292 284 242 238 242 249 253 195 195 233 233 202 185 193 179 191 170 178 180 178 182 171 142 145 146 139 137 138 141 140 142 143 144 143 146 147 147 151 152 146 122 144 147 136 143 147 133 126
17 40 354 310 272 288 257 251 254 231 186 316 333 326 322 310 307 323 26 322 299 297 308 300 298 308 311 313 311 304 293 288 291 293 292 290 289 288 284 284 265 238 246 259 256 210 228 238 219 205 212 204 190 188 173 176 171 178 182 146 144 145 137 137 138 139 138 137 142 143 139 140 142 145 148 146 152 144 138 139 142 141 145 137 148 151
313 33 34 291 306 321 276 120 297 339 344 330 320 316 309 290 294 312 311 292 270 276 290 287 295 299 301 301 289 291 294 293 294 291 290 289 286 281 280 277 270 248 238 237 230 192 206 204 215 219 212 212 195 185 183 175 174 172 152 147 147 139 138 139 140 135 135 138 133 138 143 144 144 141 142 148 139 134 133 137 145 140 148 154 153 158
260 157 333 290 276 255 279 335 321 302 290 288 293 309 318 325 324 321 298 295 278 264 257 285 305 307 308 309 300 288 284 288 290 291 292 291 288 287 281 272 268 262 233 226 224 204 220 214 217 215 206 207 197 185 184 181 173 162 151 150 146 143 142 144 145 141 140 143 135 136 144 142 134 132 130 127 128 119 124 124 133 142 154 161 160 161
295 325 261 273 288 273 285 275 268 273 279 256 259 286 302 310 312 306 306 310 312 305 306 301 293 289 299 293 293 291 291 290 288 287 287 288 287 284 281 278 270 259 248 219 215 200 211 213 217 214 207 209 191 185 185 181 167 161 157 155 152 152 150 149 146 145 144 139 131 128 122 117 133 133 127 120 126 115 120 145 153 142 140 160 177 174
261 246 258 271 267 271 264 274 298 293 295 295 299 300 299 299 296 295 298 299 298 301 303 306 307 306 297 289 287 288 285 287 289 292 291 289 285 284 286 283 273 265 252 228 199 212 222 224 219 212 209 200 179 180 180 171 169 167 162 156 159 157 153 150 145 135 137 146 137 137 132 134 135 141 140 137 136 116 76 56 65 95 146 121 81 88
246 250 258 255 256 264 276 272 270 276 281 276 280 282 283 290 293 293 290 291 294 292 291 295 303 303 302 299 298 294 287 285 288 292 294 289 287 286 285 281 273 260 252 219 206 221 219 217 210 211 210 192 174 178 164 154 151 148 148 154 159 158 150 148 141 122 134 148 148 151 149 150 147 148 145 138 129 128 127 118 71 67 82 93 98 97